[[{"header":{"parameterUnit":"m.s-1","parameterCategory":2,"la1":30.2991,"la2":30.254,"lo1":-89.0895,"lo2":-89.0444,"dy":0.0017,"dx":0.0017,"nx":28,"ny":28,"refTime":"2024-07-02T21:00:00:Z","depth":"0","parameterNumber":2,"parameterNumberName":"U-component_of_CURRENTS"},"data":[0,0,0,0,0,0,0,0,0,0,0,0,0,0,0,0,0,0,0,0,0,0,0,0,0,0,0,0,0,0,0,0,0,0,0,0,0,0,0,0,0,0,0,0,0,0,0,0,0,0,0,0,0,0,0,0,0,0,0.098,0.098,0,0.0979,0.0979,0.0979,0.0984,0.0984,0.0984,0.0985,0.0972,0.0972,0.0971,0,0,0,0,0,0,0,0,0,0,0,0,0,0.0925,0.0926,0.098,0.098,0.098,0.0979,0.0979,0.0978,0.0984,0.0984,0.0984,0.0985,0.0972,0.0972,0.0971,0,0,0,0,0,0,0,0,0,0,0,0,0,0.0938,0.0927,0.098,0.0984,0.0984,0.0979,0.0979,0.0978,0.0984,0.0984,0.0985,0.0985,0.0973,0.0972,0.0971,0.0957,0,0,0.0968,0.0968,0,0,0,0,0,0,0,0,0.0937,0.094,0.0983,0.0983,0.0984,0.0983,0.0955,0.0971,0.0984,0.0983,0.0985,0.0985,0.0975,0.0974,0.0971,0.0957,0.0956,0.0968,0.0968,0.0967,0.0967,0,0,0,0,0,0,0,0.0936,0.0939,0.0978,0.0983,0.0984,0.0964,0.0967,0.0958,0.0975,0.0983,0.0983,0.0985,0.0975,0.0972,0.0971,0.0956,0.0968,0.0967,0.0967,0.0966,0.094,0.0939,0,0,0,0,0,0,0.0942,0.0939,0.0978,0.0978,0.0962,0.0965,0.0968,0.0982,0.0976,0.0976,0.0985,0.0985,0.0974,0.0972,0.0971,0.096,0.0967,0.0966,0.0966,0.094,0.094,0.0939,0,0,0,0,0,0,0.0941,0.0946,0.0978,0.0959,0.0962,0.0966,0.0981,0.0982,0.0982,0.0978,0.0977,0.0985,0.0974,0.0972,0.0966,0.0959,0.0966,0.0965,0.094,0.094,0.094,0.0934,0,0,0,0,0,0,0.094,0.0946,0.0956,0.096,0.0963,0.098,0.0981,0.0981,0.0983,0.0984,0.0978,0.0977,0.0974,0.0968,0.0966,0.0958,0.0965,0.094,0.094,0.094,0.0935,0.0934,0.0933,0,0,0,0,0,0.0938,0.0955,0.0957,0.0962,0.0978,0.098,0.098,0.0982,0.0983,0.0984,0.098,0.0977,0.0964,0.0967,0.0964,0.0957,0.094,0.094,0.094,0.0935,0.0934,0.0933,0,0,0,0,0,0,0.0937,0.0957,0.096,0.0982,0.0982,0.0981,0.0984,0.0982,0.0979,0.0981,0.0975,0.0973,0.0968,0.0962,0.0966,0.0948,0.0952,0.0951,0.0949,0.0948,0.0947,0.1003,0.0964,0,0,0,0,0,0.0942,0.096,0.0967,0.0983,0.0984,0.0982,0.0983,0.0983,0.0982,0.0981,0.0977,0.097,0.0963,0.0956,0.0953,0.0939,0.1071,0.0933,0.0932,0.0931,0.0975,0.1163,0.1186,0.0938,0.0938,0.0938,0,0,0.0946,0.0959,0.0969,0.0984,0.0984,0.0982,0.0984,0.0987,0.0985,0.0979,0.0976,0.097,0.096,0.095,0.0946,0.0944,0.1078,0.0931,0.093,0.0976,0.1166,0.1191,0.1213,0.0938,0.0938,0.0938,0,0,0.0957,0.0974,0.0987,0.0986,0.0988,0.0986,0.0987,0.0986,0.0987,0.0982,0.0977,0.0975,0.0957,0.0954,0.0948,0.0942,0.1072,0.0927,0.0964,0.1144,0.1168,0.119,0.1432,0.1476,0.0922,0.0922,0.0922,0,0.0955,0.0981,0.0988,0.0991,0.0993,0.0987,0.099,0.0986,0.0982,0.1,0.0984,0.1004,0.0965,0.0987,0.0968,0.0942,0.1107,0.0964,0.115,0.1175,0.1198,0.144,0.1489,0.0921,0.0921,0.0921,0.0921,0,0.0971,0.0985,0.0991,0.0996,0.0995,0.0998,0.0992,0.0996,0.0995,0.1008,0.1042,0.1021,0.1059,0.1008,0.0976,0.1092,0.1181,0.1137,0.1165,0.1225,0.1474,0.1525,0.0921,0.0921,0.0921,0.0921,0,0,0.0982,0.0999,0.1,0.101,0.1001,0.1007,0.1003,0.1023,0.1076,0.1059,0.1155,0.1082,0.1127,0.1126,0.1101,0.1201,0.1467,0.1239,0.1248,0.1505,0.1967,0.1992,0.2052,0.1484,0.1491,0.1497,0.2093,0,0.099,0.101,0.101,0.1021,0.1033,0.1026,0.1042,0.1058,0.1096,0.1189,0.1189,0.1267,0.1158,0.1212,0.1293,0.1434,0.1598,0.1316,0.1851,0.1869,0.1903,0.2108,0.2025,0.2545,0.2144,0.2152,0.2159,0,0.1006,0.1021,0.1043,0.1069,0.1075,0.1079,0.1144,0.1163,0.1265,0.1318,0.1404,0.1456,0.1584,0.1496,0.1834,0.1683,0.1847,0.1944,0.1969,0.2036,0.1988,0.241,0.2654,0.2552,0.2238,0.2232,0.2226,0,0.1037,0.1045,0.1073,0.1074,0.11,0.1117,0.1134,0.1208,0.128,0.1452,0.1574,0.1722,0.1863,0.2062,0.221,0.2099,0.2632,0.2509,0.2706,0.2713,0.2769,0.2766,0.2997,0.2817,0.2816,0.2814,0.2812,0,0.107,0.1092,0.1093,0.1114,0.1171,0.1162,0.126,0.1314,0.1451,0.1609,0.1674,0.1862,0.2018,0.2286,0.2404,0.2756,0.2824,0.2817,0.2889,0.2763,0.2753,0.276,0.269,0.2836,0.2831,0.2827,0.2823,0,0.1157,0.1129,0.1179,0.1197,0.1198,0.1258,0.1328,0.144,0.1541,0.1776,0.1859,0.2084,0.2443,0.2615,0.2993,0.3042,0.3288,0.3424,0.3288,0.3329,0.3349,0.3282,0.3542,0.3488,0.381,0.3814,0.3818,0,0.1243,0.1274,0.1276,0.1322,0.1342,0.1396,0.1466,0.1505,0.1645,0.1915,0.2082,0.2429,0.2677,0.3231,0.3419,0.3767,0.3547,0.3866,0.3575,0.3438,0.3418,0.3176,0.3088,0.3698,0.37,0.3702,0.3704,0,0.1467,0.1444,0.1497,0.1542,0.1593,0.1643,0.1737,0.181,0.1927,0.2093,0.2391,0.2586,0.3076,0.3361,0.3745,0.3906,0.3687,0.3918,0.3825,0.3428,0.3143,0.3091,0.3246,0.3722,0.372,0.3719,0.3718,0.3717,0.1693,0.1752,0.1787,0.1823,0.1866,0.1909,0.1937,0.2044,0.2184,0.2388,0.2573,0.2819,0.3189,0.3698,0.3855,0.4021,0.39,0.3924,0.3903,0.3705,0.3477,0.3693,0.4163,0.4164,0.4164,0.4165,0.4165,0,0.1955,0.1978,0.2071,0.207,0.211,0.2071,0.215,0.2162,0.2273,0.2477,0.2659,0.3028,0.3339,0.3624,0.3971,0.3976,0.3763,0.3899,0.3517,0.3468,0.3764,0.3568,0.3866,0.3866,0.3866,0.3866,0.3866,0.3866,0.2114,0.2213,0.2185,0.2275,0.2272,0.2276,0.228,0.23,0.239,0.2564,0.2724,0.2885,0.3259,0.3704,0.3878,0.3846,0.3591,0.3491,0.3461,0.3608,0.3602,0.3597,0.3392,0.3648,0.3648,0.2989,0.2985,0.2982]},{"header":{"parameterUnit":"m.s-1","parameterCategory":2,"la1":30.2991,"la2":30.254,"lo1":-89.0895,"lo2":-89.0444,"dy":0.0017,"dx":0.0017,"nx":28,"ny":28,"refTime":"2024-07-02T21:00:00:Z","depth":"0","parameterNumber":3,"parameterNumberName":"V-component_of_CURRENTS"},"data":[0,0,0,0,0,0,0,0,0,0,0,0,0,0,0,0,0,0,0,0,0,0,0,0,0,0,0,0,0,0,0,0,0,0,0,0,0,0,0,0,0,0,0,0,0,0,0,0,0,0,0,0,0,0,0,0,0,0,-0.0293,-0.0294,0,-0.0314,-0.0314,-0.0314,-0.0324,-0.0324,-0.0324,-0.0325,-0.0282,-0.0281,-0.028,0,0,0,0,0,0,0,0,0,0,0,0,0,-0.0226,-0.0227,-0.0293,-0.0294,-0.0294,-0.0314,-0.0314,-0.0314,-0.0324,-0.0324,-0.0324,-0.0325,-0.0283,-0.0281,-0.028,0,0,0,0,0,0,0,0,0,0,0,0,0,-0.025,-0.0227,-0.0293,-0.0302,-0.0304,-0.0314,-0.0314,-0.0315,-0.0324,-0.0324,-0.0324,-0.0325,-0.0283,-0.0281,-0.028,-0.0265,0,0,-0.0274,-0.0273,0,0,0,0,0,0,0,0,-0.0249,-0.0253,-0.0301,-0.0302,-0.0303,-0.0318,-0.0275,-0.0295,-0.0324,-0.0315,-0.0325,-0.0325,-0.0289,-0.0287,-0.0289,-0.0263,-0.0261,-0.0274,-0.0273,-0.0272,-0.0271,0,0,0,0,0,0,0,-0.0247,-0.0252,-0.03,-0.0301,-0.0303,-0.0293,-0.0297,-0.0279,-0.0299,-0.0316,-0.0317,-0.0321,-0.0289,-0.0291,-0.0288,-0.0261,-0.0274,-0.0272,-0.0271,-0.027,-0.0196,-0.0196,0,0,0,0,0,0,-0.0249,-0.025,-0.03,-0.0301,-0.0277,-0.0294,-0.0299,-0.0312,-0.03,-0.03,-0.0321,-0.0322,-0.0294,-0.029,-0.0287,-0.0268,-0.0272,-0.027,-0.0269,-0.0197,-0.0196,-0.0195,0,0,0,0,0,0,-0.0248,-0.0254,-0.0299,-0.0276,-0.0282,-0.0296,-0.031,-0.0312,-0.0316,-0.0305,-0.0303,-0.0323,-0.0294,-0.0289,-0.0273,-0.0267,-0.0269,-0.0268,-0.0198,-0.0197,-0.0196,-0.0231,0,0,0,0,0,0,-0.0246,-0.0254,-0.026,-0.0277,-0.0283,-0.0304,-0.031,-0.0313,-0.0319,-0.032,-0.0306,-0.0303,-0.0294,-0.0276,-0.0271,-0.0264,-0.0266,-0.0199,-0.0198,-0.0196,-0.0231,-0.0231,-0.0231,0,0,0,0,0,-0.0244,-0.0251,-0.026,-0.0266,-0.0293,-0.0304,-0.0306,-0.0315,-0.0319,-0.0319,-0.0311,-0.0303,-0.0261,-0.0274,-0.0268,-0.0261,-0.02,-0.0198,-0.0196,-0.0231,-0.0231,-0.0231,0,0,0,0,0,0,-0.0221,-0.0254,-0.0263,-0.028,-0.0292,-0.0307,-0.0307,-0.0315,-0.0311,-0.0308,-0.0299,-0.0295,-0.0275,-0.0258,-0.0273,-0.0231,-0.0226,-0.0223,-0.0254,-0.0254,-0.0254,-0.0252,-0.0265,0,0,0,0,0,-0.0221,-0.0237,-0.0261,-0.0272,-0.0278,-0.0293,-0.0297,-0.0305,-0.0306,-0.0306,-0.0298,-0.0279,-0.0261,-0.0252,-0.0232,-0.0214,-0.0156,-0.0201,-0.0201,-0.0202,-0.0194,-0.0112,-0.0104,-0.0189,-0.0189,-0.0189,0,0,-0.0215,-0.0234,-0.0242,-0.0268,-0.0277,-0.0294,-0.0295,-0.0302,-0.0314,-0.0299,-0.0301,-0.028,-0.0256,-0.0238,-0.0226,-0.0226,-0.014,-0.0199,-0.02,-0.0191,-0.0109,-0.0101,-0.0094,-0.0188,-0.0188,-0.0188,0,0,-0.0215,-0.0227,-0.0245,-0.0256,-0.0274,-0.0285,-0.0289,-0.0303,-0.0306,-0.0304,-0.0293,-0.0274,-0.0248,-0.0235,-0.0224,-0.0209,-0.0143,-0.0192,-0.0195,-0.0117,-0.0109,-0.0102,0.0007,0.0025,-0.0194,-0.0194,-0.0194,0,-0.0204,-0.0239,-0.0247,-0.0267,-0.0277,-0.0285,-0.0302,-0.0307,-0.0313,-0.0285,-0.0305,-0.0234,-0.025,-0.0199,-0.0221,-0.0212,-0.0136,-0.0204,-0.0117,-0.0109,-0.0101,0.0009,0.0028,-0.0195,-0.0195,-0.0195,-0.0195,0,-0.0226,-0.0251,-0.0257,-0.0291,-0.0295,-0.0309,-0.032,-0.0308,-0.0308,-0.0293,-0.0236,-0.024,-0.0178,-0.02,-0.0227,-0.0167,-0.0118,-0.0127,-0.0121,-0.0095,0.002,0.0041,-0.0197,-0.0197,-0.0197,-0.0196,0,0,-0.022,-0.0267,-0.0272,-0.0268,-0.031,-0.0295,-0.0311,-0.0292,-0.0213,-0.0244,-0.0141,-0.0195,-0.0147,-0.0132,-0.0132,-0.0118,-0.0039,-0.0114,-0.0109,-0.0012,0.0182,0.0189,0.0214,-0.0022,-0.002,-0.0017,0.0248,0,-0.024,-0.0272,-0.0299,-0.0303,-0.0311,-0.0308,-0.0278,-0.0246,-0.0201,-0.0092,-0.0099,0.0003,-0.0129,-0.0054,-0.0076,-0.0008,0.0012,-0.0107,0.0148,0.0156,0.0153,0.0235,0.0197,0.0427,0.0269,0.0272,0.0275,0,-0.0273,-0.0277,-0.0296,-0.0255,-0.0248,-0.0233,-0.0125,-0.0097,0.0024,0.0086,0.0152,0.0197,0.0233,0.0127,0.0206,0.0152,0.0146,0.0156,0.0168,0.0199,0.0201,0.0372,0.0472,0.0225,0.0308,0.0305,0.0303,0,-0.0242,-0.0274,-0.0274,-0.0275,-0.023,-0.0188,-0.0141,-0.0026,0.0099,0.0242,0.0394,0.0422,0.0534,0.0495,0.046,0.0372,0.0577,0.0482,0.0483,0.0486,0.0515,0.0515,0.0397,0.0522,0.0521,0.0521,0.052,0,-0.0247,-0.0222,-0.0241,-0.0213,-0.0093,-0.0109,0.0074,0.0153,0.033,0.0554,0.0522,0.0722,0.0628,0.0718,0.0607,0.065,0.071,0.0518,0.0559,0.0504,0.05,0.0334,0.019,0.0531,0.0528,0.0526,0.0525,0,-0.0134,-0.0209,-0.0133,-0.009,-0.0064,0.0062,0.0245,0.0416,0.0532,0.0833,0.0904,0.1027,0.114,0.1055,0.1073,0.0913,0.0809,0.0889,0.084,0.0865,0.0567,0.0425,0.0515,0.0415,0.0948,0.095,0.0951,0,-0.0049,-0.0021,0.0034,0.0117,0.0163,0.0306,0.0447,0.0546,0.074,0.104,0.1228,0.1392,0.1549,0.1577,0.1341,0.1231,0.0967,0.1077,0.0838,0.0573,0.0447,0.0401,0.0304,0.0893,0.0894,0.0894,0.0895,0,0.0231,0.023,0.0318,0.0424,0.0546,0.07,0.0878,0.1033,0.1199,0.1417,0.1722,0.1855,0.1868,0.1746,0.1545,0.1397,0.09,0.1087,0.0833,0.0411,0.0342,0.0259,0.0709,0.0902,0.0901,0.09,0.09,0.09,0.0532,0.064,0.0695,0.0802,0.0932,0.1084,0.1214,0.1392,0.1655,0.194,0.205,0.2243,0.2017,0.1736,0.1502,0.0971,0.098,0.0731,0.0603,0.06,0.0411,0.0879,0.108,0.108,0.108,0.1081,0.1081,0,0.0869,0.091,0.1063,0.116,0.13,0.1287,0.1509,0.1611,0.1859,0.213,0.2334,0.2382,0.1985,0.1576,0.0915,0.0525,0.0373,0.0294,0.015,0.0083,0.0527,0.0416,0.0455,0.0456,0.0456,0.0456,0.0456,0.0457,0.1061,0.1203,0.1191,0.1431,0.1504,0.1657,0.1749,0.1904,0.2078,0.2377,0.2536,0.2681,0.2428,0.1166,0.0272,0.0025,-0.0326,-0.0308,-0.0457,-0.029,-0.0263,-0.0237,-0.038,-0.0508,-0.0509,-0.0866,-0.0871,-0.0874]}],[{"header":{"parameterUnit":"m.s-1","parameterCategory":2,"la1":30.2991,"la2":30.254,"lo1":-89.0895,"lo2":-89.0444,"dy":0.0017,"dx":0.0017,"nx":28,"ny":28,"refTime":"2024-07-02T21:00:00:Z","depth":"2","parameterNumber":2,"parameterNumberName":"U-component_of_CURRENTS"},"data":[0,0,0,0,0,0,0,0,0,0,0,0,0,0,0,0,0,0,0,0,0,0,0,0,0,0,0,0,0,0,0,0,0,0,0,0,0,0,0,0,0,0,0,0,0,0,0,0,0,0,0,0,0,0,0,0,0,0,0.0233,0.0233,0,0.0288,0.0289,0.0289,0.0351,0.0352,0.0353,0.0353,0.044,0.0441,0.0443,0,0,0,0,0,0,0,0,0,0,0,0,0,0.0201,0.0202,0.0233,0.0233,0.0233,0.0288,0.0289,0.029,0.0351,0.0352,0.0353,0.0353,0.0439,0.0441,0.0443,0,0,0,0,0,0,0,0,0,0,0,0,0,0.0234,0.0202,0.0232,0.0269,0.0272,0.0287,0.0289,0.029,0.0351,0.0352,0.0353,0.0354,0.0438,0.0441,0.0443,0.0439,0,0,0.0451,0.0452,0,0,0,0,0,0,0,0,0.0232,0.0235,0.0263,0.0266,0.027,0.0311,0.0309,0.034,0.0351,0.0324,0.0353,0.0354,0.0397,0.0403,0.0415,0.0443,0.0447,0.0451,0.0453,0.0454,0.0455,0,0,0,0,0,0,0,0.0229,0.0233,0.0257,0.0263,0.0268,0.0289,0.0295,0.0316,0.0357,0.0326,0.033,0.0332,0.04,0.0412,0.0417,0.0448,0.0451,0.0453,0.0455,0.0456,0.0525,0.0526,0,0,0,0,0,0,0.0215,0.0231,0.0255,0.0258,0.025,0.0289,0.0295,0.0299,0.0356,0.0365,0.0331,0.0334,0.0407,0.0414,0.042,0.0451,0.0454,0.0456,0.0458,0.0525,0.0525,0.0526,0,0,0,0,0,0,0.0214,0.0217,0.0253,0.0244,0.025,0.0288,0.0292,0.03,0.0334,0.0359,0.0369,0.0359,0.0408,0.0417,0.0467,0.0454,0.0457,0.046,0.0525,0.0525,0.0526,0.0491,0,0,0,0,0,0,0.0213,0.0216,0.0221,0.0243,0.025,0.0274,0.0291,0.03,0.0331,0.0337,0.0386,0.0394,0.041,0.0463,0.0469,0.0457,0.0462,0.0524,0.0525,0.0526,0.0492,0.0491,0.0489,0,0,0,0,0,0.0212,0.0215,0.0221,0.0224,0.0253,0.0274,0.0281,0.0312,0.0331,0.0348,0.0389,0.0393,0.047,0.0466,0.0473,0.0461,0.0524,0.0525,0.0525,0.0493,0.0491,0.0489,0,0,0,0,0,0,0.0208,0.0222,0.0229,0.0238,0.0258,0.0284,0.0306,0.0321,0.0366,0.0387,0.0409,0.042,0.0457,0.0469,0.0463,0.0484,0.0493,0.0495,0.0466,0.0464,0.0463,0.046,0.0464,0,0,0,0,0,0.0205,0.0212,0.0229,0.0238,0.0254,0.0282,0.0298,0.0322,0.0357,0.0379,0.0405,0.0438,0.046,0.0473,0.0502,0.0516,0.0565,0.0511,0.051,0.0508,0.0512,0.0651,0.0664,0.0528,0.0528,0.0528,0,0,0.0204,0.0213,0.0218,0.0237,0.0263,0.0273,0.0297,0.0334,0.0336,0.0381,0.0409,0.0444,0.0468,0.0488,0.0502,0.0498,0.0555,0.0509,0.0508,0.0512,0.0654,0.0668,0.068,0.0529,0.0529,0.0529,0,0,0.0204,0.0222,0.0229,0.0244,0.0279,0.029,0.0302,0.0339,0.0357,0.0382,0.0415,0.0442,0.0476,0.0483,0.0489,0.0496,0.0555,0.051,0.049,0.0625,0.0638,0.065,0.0654,0.0668,0.0498,0.0498,0.0498,0,0.0201,0.0212,0.0235,0.0246,0.0259,0.0295,0.0307,0.0318,0.0362,0.0386,0.039,0.0463,0.046,0.049,0.0476,0.0488,0.0563,0.0489,0.0626,0.0639,0.0653,0.0655,0.067,0.0496,0.0496,0.0497,0.0497,0,0.0207,0.0216,0.0229,0.0244,0.0258,0.0284,0.0297,0.0322,0.0342,0.0361,0.0416,0.0434,0.0498,0.0465,0.0461,0.0539,0.0555,0.062,0.0631,0.0665,0.0663,0.0679,0.0494,0.0495,0.0495,0.0495,0,0,0.02,0.0224,0.0229,0.0242,0.0267,0.0284,0.0288,0.0316,0.036,0.0374,0.0448,0.0416,0.0486,0.0498,0.0515,0.0563,0.0652,0.0627,0.0635,0.0629,0.0902,0.0864,0.0877,0.0795,0.0799,0.0803,0.0835,0,0.0201,0.0213,0.0223,0.0239,0.0255,0.0281,0.0288,0.0319,0.0362,0.0445,0.0462,0.056,0.0485,0.0568,0.0599,0.0696,0.071,0.0632,0.0871,0.0874,0.0841,0.0902,0.0859,0.0886,0.0851,0.0854,0.0856,0,0.0206,0.0215,0.0228,0.0257,0.0271,0.0288,0.0352,0.0372,0.0467,0.0516,0.0607,0.0696,0.0765,0.0738,0.0849,0.0837,0.0855,0.087,0.0876,0.0874,0.0872,0.0864,0.0918,0.0884,0.0882,0.088,0.0878,0,0.0203,0.0221,0.0233,0.0241,0.0275,0.0305,0.0342,0.0414,0.048,0.0638,0.0742,0.0846,0.0976,0.1031,0.1055,0.102,0.1183,0.1156,0.1089,0.1081,0.1101,0.109,0.1228,0.1228,0.1228,0.1228,0.1228,0,0.0201,0.0223,0.0246,0.0261,0.0329,0.0338,0.0446,0.0494,0.0619,0.0726,0.0832,0.093,0.1088,0.1199,0.1155,0.1185,0.1286,0.1091,0.1124,0.1075,0.1062,0.1123,0.111,0.1229,0.1228,0.1228,0.1228,0,0.0241,0.022,0.0271,0.0314,0.0339,0.0415,0.0543,0.0621,0.0715,0.0878,0.0968,0.1106,0.1212,0.1285,0.1396,0.1341,0.1354,0.1322,0.1183,0.1199,0.11,0.1085,0.1241,0.1241,0.1241,0.1241,0.124,0,0.0271,0.0293,0.0359,0.041,0.0454,0.0556,0.0625,0.0695,0.0778,0.0925,0.1003,0.1185,0.1246,0.1359,0.1376,0.1361,0.1331,0.1288,0.1181,0.1103,0.1119,0.1104,0.109,0.1148,0.1147,0.1146,0.1145,0,0.0382,0.0408,0.0464,0.053,0.0603,0.0685,0.0781,0.083,0.09,0.0993,0.1062,0.113,0.126,0.129,0.1346,0.1274,0.1298,0.1265,0.1349,0.1147,0.102,0.1033,0.1022,0.1139,0.114,0.114,0.114,0.1141,0.0505,0.0553,0.0579,0.0641,0.0732,0.0745,0.0768,0.0834,0.088,0.0972,0.1043,0.111,0.1219,0.1243,0.122,0.1201,0.1202,0.1148,0.115,0.1152,0.1133,0.1014,0.1119,0.1119,0.112,0.112,0.1121,0,0.0543,0.0558,0.0664,0.0664,0.0721,0.0764,0.0805,0.0789,0.0768,0.094,0.1009,0.0998,0.1069,0.1123,0.1117,0.1112,0.1074,0.1038,0.1021,0.1029,0.1035,0.1009,0.0963,0.0962,0.0961,0.0961,0,0,0.0536,0.0535,0.0527,0.0562,0.0628,0.0627,0.0616,0.0632,0.0717,0.0762,0.0854,0.1055,0.1124,0.1066,0.106,0.1032,0.1003,0.0971,0.1103,0.1093,0.1099,0.1109,0.1078,0,0,0,0,0]},{"header":{"parameterUnit":"m.s-1","parameterCategory":2,"la1":30.2991,"la2":30.254,"lo1":-89.0895,"lo2":-89.0444,"dy":0.0017,"dx":0.0017,"nx":28,"ny":28,"refTime":"2024-07-02T21:00:00:Z","depth":"2","parameterNumber":3,"parameterNumberName":"V-component_of_CURRENTS"},"data":[0,0,0,0,0,0,0,0,0,0,0,0,0,0,0,0,0,0,0,0,0,0,0,0,0,0,0,0,0,0,0,0,0,0,0,0,0,0,0,0,0,0,0,0,0,0,0,0,0,0,0,0,0,0,0,0,0,0,-0.0389,-0.0389,0,-0.0425,-0.0426,-0.0426,-0.0457,-0.0457,-0.0458,-0.0458,-0.0457,-0.0457,-0.0456,0,0,0,0,0,0,0,0,0,0,0,0,0,-0.0362,-0.0362,-0.0389,-0.0389,-0.039,-0.0425,-0.0426,-0.0426,-0.0457,-0.0457,-0.0458,-0.0458,-0.0457,-0.0457,-0.0456,0,0,0,0,0,0,0,0,0,0,0,0,0,-0.0384,-0.0362,-0.0389,-0.0409,-0.0411,-0.0425,-0.0426,-0.0427,-0.0457,-0.0457,-0.0458,-0.0458,-0.0457,-0.0457,-0.0456,-0.0446,0,0,-0.0455,-0.0455,0,0,0,0,0,0,0,0,-0.0383,-0.0385,-0.0405,-0.0407,-0.041,-0.0436,-0.0416,-0.0431,-0.0457,-0.044,-0.0458,-0.0458,-0.0446,-0.0446,-0.0454,-0.0446,-0.0446,-0.0455,-0.0455,-0.0455,-0.0455,0,0,0,0,0,0,0,-0.0381,-0.0384,-0.0404,-0.0406,-0.0408,-0.0421,-0.0425,-0.0419,-0.044,-0.0442,-0.0444,-0.0446,-0.0447,-0.0454,-0.0454,-0.0446,-0.0455,-0.0455,-0.0454,-0.0454,-0.0427,-0.0427,0,0,0,0,0,0,-0.0374,-0.0382,-0.0403,-0.0405,-0.0396,-0.0421,-0.0425,-0.0428,-0.0441,-0.0444,-0.0446,-0.0448,-0.0455,-0.0455,-0.0454,-0.0458,-0.0455,-0.0454,-0.0454,-0.0428,-0.0427,-0.0427,0,0,0,0,0,0,-0.0373,-0.0375,-0.0402,-0.0394,-0.0398,-0.0421,-0.0424,-0.0429,-0.0446,-0.0445,-0.0447,-0.046,-0.0455,-0.0455,-0.0458,-0.0457,-0.0454,-0.0454,-0.0429,-0.0428,-0.0427,-0.0455,0,0,0,0,0,0,-0.0372,-0.0375,-0.0379,-0.0393,-0.0398,-0.0414,-0.0424,-0.0429,-0.0446,-0.0449,-0.0457,-0.0457,-0.0455,-0.0459,-0.0458,-0.0457,-0.0453,-0.0429,-0.0428,-0.0427,-0.0455,-0.0455,-0.0456,0,0,0,0,0,-0.0371,-0.0371,-0.0379,-0.0382,-0.0402,-0.0414,-0.0418,-0.0436,-0.0446,-0.0454,-0.0461,-0.0457,-0.0452,-0.0459,-0.0457,-0.0456,-0.043,-0.0428,-0.0427,-0.0455,-0.0455,-0.0456,0,0,0,0,0,0,-0.036,-0.0374,-0.0384,-0.0389,-0.0403,-0.0419,-0.0428,-0.044,-0.0453,-0.0458,-0.0459,-0.0459,-0.0459,-0.045,-0.0458,-0.0442,-0.0436,-0.0435,-0.0457,-0.0458,-0.0459,-0.0498,-0.0453,0,0,0,0,0,-0.036,-0.0366,-0.0381,-0.0387,-0.0394,-0.0414,-0.0423,-0.0435,-0.0446,-0.0454,-0.0459,-0.0457,-0.0451,-0.0451,-0.0445,-0.0442,-0.0453,-0.0435,-0.0436,-0.0437,-0.0465,-0.0448,-0.0451,-0.0423,-0.0423,-0.0423,0,0,-0.0357,-0.0366,-0.037,-0.0386,-0.04,-0.0411,-0.0421,-0.0436,-0.0448,-0.0449,-0.0466,-0.0462,-0.0451,-0.0449,-0.0447,-0.0444,-0.0454,-0.0435,-0.0436,-0.0465,-0.0448,-0.0451,-0.0453,-0.0423,-0.0423,-0.0423,0,0,-0.0355,-0.0364,-0.0371,-0.0384,-0.0405,-0.0414,-0.0419,-0.0439,-0.0453,-0.0466,-0.0465,-0.0472,-0.046,-0.0463,-0.0458,-0.0458,-0.0458,-0.0438,-0.0476,-0.0458,-0.0461,-0.0464,-0.0507,-0.0513,-0.0438,-0.0438,-0.0438,0,-0.0353,-0.0366,-0.0375,-0.0388,-0.0402,-0.0415,-0.043,-0.0441,-0.046,-0.0474,-0.0472,-0.0481,-0.0473,-0.048,-0.0484,-0.0463,-0.0469,-0.0477,-0.0462,-0.0464,-0.0466,-0.051,-0.0516,-0.0439,-0.0439,-0.0439,-0.0439,0,-0.0358,-0.0373,-0.0378,-0.0399,-0.0412,-0.0426,-0.0442,-0.0458,-0.0473,-0.0487,-0.0505,-0.0504,-0.0506,-0.05,-0.0499,-0.0506,-0.0513,-0.0465,-0.0466,-0.0471,-0.0516,-0.0523,-0.0441,-0.0441,-0.044,-0.044,0,0,-0.035,-0.0377,-0.0383,-0.0399,-0.0423,-0.0434,-0.0454,-0.048,-0.0494,-0.0517,-0.0526,-0.055,-0.0551,-0.0547,-0.0537,-0.0546,-0.0575,-0.0521,-0.0519,-0.0579,-0.058,-0.0561,-0.0566,-0.0512,-0.0512,-0.0513,-0.0616,0,-0.0359,-0.0381,-0.0395,-0.0422,-0.0436,-0.0459,-0.0475,-0.0499,-0.0511,-0.0514,-0.0534,-0.0514,-0.0561,-0.0533,-0.0567,-0.0533,-0.0588,-0.0555,-0.0555,-0.0558,-0.0549,-0.0571,-0.0517,-0.06,-0.0622,-0.0623,-0.0624,0,-0.0369,-0.0383,-0.0411,-0.0441,-0.045,-0.0466,-0.0499,-0.0511,-0.0522,-0.0523,-0.054,-0.0513,-0.0526,-0.0534,-0.0589,-0.0557,-0.0602,-0.0614,-0.0615,-0.0597,-0.0548,-0.0591,-0.0611,-0.0634,-0.0633,-0.0633,-0.0632,0,-0.0373,-0.0398,-0.0424,-0.0436,-0.0466,-0.0488,-0.0499,-0.0522,-0.0508,-0.0495,-0.0454,-0.0494,-0.0438,-0.0513,-0.0549,-0.0546,-0.061,-0.0584,-0.0652,-0.0653,-0.0612,-0.0607,-0.0674,-0.0674,-0.0674,-0.0673,-0.0673,0,-0.0384,-0.0414,-0.0427,-0.0447,-0.0454,-0.0487,-0.0484,-0.0503,-0.0482,-0.0443,-0.0441,-0.0409,-0.0417,-0.0436,-0.0537,-0.0615,-0.0601,-0.0691,-0.0673,-0.0622,-0.0616,-0.0636,-0.0631,-0.0677,-0.0676,-0.0676,-0.0675,0,-0.0403,-0.0421,-0.0439,-0.046,-0.0459,-0.0463,-0.0431,-0.0418,-0.0412,-0.0344,-0.0306,-0.0291,-0.0319,-0.0389,-0.0465,-0.0547,-0.0643,-0.0695,-0.0667,-0.0643,-0.0722,-0.0717,-0.0777,-0.0778,-0.0778,-0.0778,-0.0778,0,-0.0427,-0.0437,-0.0426,-0.0408,-0.0418,-0.0405,-0.0381,-0.0375,-0.0333,-0.0294,-0.0245,-0.0227,-0.0225,-0.0356,-0.0466,-0.0627,-0.0678,-0.0689,-0.0679,-0.0754,-0.0731,-0.0725,-0.0719,-0.0658,-0.0657,-0.0656,-0.0656,0,-0.045,-0.0441,-0.0435,-0.0394,-0.0366,-0.0315,-0.0278,-0.0225,-0.0204,-0.014,-0.0102,-0.0095,-0.0189,-0.0282,-0.0458,-0.0574,-0.0644,-0.0678,-0.0734,-0.0624,-0.0644,-0.062,-0.0618,-0.0649,-0.0649,-0.065,-0.065,-0.065,-0.046,-0.0441,-0.0422,-0.0381,-0.0329,-0.0266,-0.0195,-0.0131,-0.0059,0.0049,0.0001,0.004,-0.0099,-0.0272,-0.045,-0.0596,-0.0626,-0.0674,-0.0675,-0.0678,-0.0629,-0.0645,-0.0647,-0.0647,-0.0648,-0.0648,-0.0649,0,-0.0481,-0.0454,-0.0412,-0.0369,-0.0299,-0.0266,-0.0151,-0.0064,0.005,0.0141,0.0194,0.0093,-0.0033,-0.0208,-0.0403,-0.0556,-0.056,-0.0605,-0.0581,-0.0586,-0.0592,-0.0538,-0.0533,-0.0533,-0.0533,-0.0533,0,0,-0.0501,-0.0475,-0.0452,-0.037,-0.0304,-0.0184,-0.009,0.0045,0.0145,0.0254,0.0316,0.03,0.0059,-0.0065,-0.0287,-0.0399,-0.0453,-0.0416,-0.0493,-0.0444,-0.0447,-0.0616,-0.0537,0,0,0,0,0]}],[{"header":{"parameterUnit":"m.s-1","parameterCategory":2,"la1":30.2991,"la2":30.254,"lo1":-89.0895,"lo2":-89.0444,"dy":0.0017,"dx":0.0017,"nx":28,"ny":28,"refTime":"2024-07-02T21:00:00:Z","depth":"4","parameterNumber":2,"parameterNumberName":"U-component_of_CURRENTS"},"data":[0,0,0,0,0,0,0,0,0,0,0,0,0,0,0,0,0,0,0,0,0,0,0,0,0,0,0,0,0,0,0,0,0,0,0,0,0,0,0,0,0,0,0,0,0,0,0,0,0,0,0,0,0,0,0,0,0,0,0.0058,0.0059,0,0.0078,0.0078,0.0078,0.0093,0.0093,0.0094,0.0094,0.0101,0.0101,0.0101,0,0,0,0,0,0,0,0,0,0,0,0,0,0.0037,0.0037,0.0058,0.0059,0.0059,0.0078,0.0078,0.0078,0.0093,0.0093,0.0094,0.0094,0.0101,0.0101,0.0101,0,0,0,0,0,0,0,0,0,0,0,0,0,0.0049,0.0037,0.0058,0.007,0.0071,0.0078,0.0078,0.0078,0.0093,0.0093,0.0094,0.0094,0.0101,0.0101,0.0101,0.0093,0,0,0.0101,0.0101,0,0,0,0,0,0,0,0,0.0048,0.005,0.0068,0.0069,0.007,0.0084,0.0073,0.0083,0.0093,0.0083,0.0094,0.0094,0.0095,0.0095,0.0097,0.0093,0.0094,0.0101,0.0101,0.0101,0.0101,0,0,0,0,0,0,0,0.0048,0.0049,0.0065,0.0068,0.007,0.0075,0.0077,0.0075,0.0086,0.0084,0.0086,0.009,0.0096,0.0097,0.0097,0.0094,0.0101,0.0101,0.0101,0.0101,0.0124,0.0125,0,0,0,0,0,0,0.0047,0.0048,0.0064,0.0065,0.0061,0.0075,0.0077,0.0078,0.0086,0.0088,0.0089,0.009,0.0097,0.0097,0.0097,0.0122,0.0101,0.0101,0.0101,0.0123,0.0124,0.0125,0,0,0,0,0,0,0.0046,0.0048,0.0063,0.0058,0.0061,0.0075,0.0076,0.0079,0.0088,0.009,0.0092,0.0098,0.0097,0.0097,0.0109,0.0121,0.0101,0.0101,0.0123,0.0124,0.0125,0.015,0,0,0,0,0,0,0.0046,0.0048,0.0046,0.0058,0.0061,0.0072,0.0076,0.0079,0.009,0.0092,0.0098,0.0098,0.0097,0.0109,0.0109,0.0121,0.0101,0.0122,0.0123,0.0124,0.0148,0.0152,0.0155,0,0,0,0,0,0.0045,0.0042,0.0046,0.0048,0.0059,0.0073,0.0075,0.0085,0.009,0.0095,0.0104,0.0099,0.0117,0.011,0.0109,0.0121,0.0121,0.0123,0.0124,0.0147,0.0151,0.0155,0,0,0,0,0,0,0.003,0.0044,0.0048,0.0049,0.0063,0.0076,0.0079,0.0089,0.0099,0.0102,0.0105,0.0106,0.012,0.0118,0.011,0.0132,0.0119,0.012,0.0136,0.014,0.0143,0.0165,0.0101,0,0,0,0,0,0.0026,0.0028,0.0045,0.0045,0.0052,0.0067,0.0073,0.0084,0.0096,0.0101,0.0108,0.0116,0.0124,0.013,0.0132,0.0144,0.0154,0.0152,0.0156,0.0158,0.0176,0.0197,0.0204,0.013,0.013,0.013,0,0,0.0018,0.0027,0.0026,0.0042,0.0052,0.0068,0.0072,0.0085,0.0103,0.0099,0.0122,0.0123,0.0128,0.0143,0.015,0.0145,0.0184,0.016,0.0162,0.0179,0.0199,0.0206,0.0213,0.0131,0.0131,0.013,0,0,0.001,0.0014,0.0019,0.0033,0.0054,0.0067,0.0074,0.0095,0.0108,0.0128,0.0132,0.0146,0.0155,0.0167,0.0172,0.0194,0.0197,0.0193,0.023,0.025,0.0256,0.0262,0.0282,0.0289,0.0198,0.0198,0.0198,0,0.0002,0.0013,0.0022,0.0038,0.0054,0.007,0.0089,0.0104,0.0127,0.0149,0.0139,0.0174,0.0169,0.0202,0.0213,0.0202,0.0217,0.0214,0.0254,0.026,0.0266,0.0285,0.0293,0.02,0.0199,0.0199,0.0199,0,0.0006,0.0018,0.0023,0.005,0.0069,0.0085,0.0114,0.0138,0.0155,0.0175,0.021,0.0208,0.0235,0.0231,0.023,0.0271,0.027,0.0252,0.0245,0.0275,0.0293,0.03,0.0202,0.0201,0.0201,0.02,0,0,-0.0018,0.0019,0.0021,0.0045,0.008,0.01,0.0137,0.0181,0.0218,0.0233,0.0278,0.0288,0.0296,0.0304,0.0301,0.032,0.0362,0.0312,0.0312,0.0333,0.0416,0.0412,0.042,0.0355,0.0356,0.0358,0.0412,0,-0.0014,0.0016,0.0037,0.0076,0.0099,0.0137,0.0174,0.0218,0.0249,0.0294,0.0308,0.0336,0.0321,0.0334,0.0355,0.0357,0.0385,0.035,0.0383,0.0385,0.0379,0.043,0.0362,0.0417,0.0419,0.042,0.0421,0,-0.0015,0.0012,0.0046,0.0108,0.0123,0.0156,0.0232,0.0266,0.0331,0.0355,0.0393,0.04,0.0435,0.0409,0.045,0.0431,0.0438,0.0437,0.0439,0.0437,0.0396,0.0382,0.0435,0.0434,0.0433,0.0432,0.0431,0,-0.0031,0.0019,0.005,0.0069,0.0137,0.0178,0.0222,0.0292,0.0332,0.0396,0.0431,0.0465,0.0488,0.05,0.0509,0.0483,0.0555,0.0508,0.0516,0.0516,0.0489,0.0482,0.0553,0.0553,0.0552,0.0552,0.0552,0,-0.0035,-0.0012,0.0052,0.0072,0.0132,0.0183,0.0253,0.0304,0.0375,0.0432,0.0462,0.0513,0.0515,0.0553,0.0544,0.057,0.0585,0.0547,0.0539,0.0497,0.049,0.0494,0.0486,0.0554,0.0554,0.0554,0.0553,0,-0.0067,-0.0031,0.0012,0.0093,0.0125,0.0169,0.0267,0.0315,0.0386,0.0462,0.0483,0.0558,0.0607,0.0616,0.0642,0.062,0.0631,0.0639,0.0618,0.0604,0.0565,0.0559,0.0639,0.064,0.064,0.064,0.0641,0,-0.0081,-0.0063,0.0015,0.0056,0.0097,0.0171,0.0225,0.0309,0.0362,0.0495,0.0531,0.0612,0.0653,0.0691,0.0699,0.0695,0.0683,0.0684,0.0607,0.0596,0.0579,0.0571,0.0564,0.0641,0.0642,0.0642,0.0642,0,-0.0096,-0.0074,-0.0039,0.0034,0.0099,0.0161,0.0248,0.0288,0.0396,0.046,0.0565,0.061,0.068,0.0693,0.0712,0.0703,0.0673,0.0688,0.0686,0.0612,0.0599,0.0581,0.0573,0.0643,0.0643,0.0643,0.0643,0,-0.0109,-0.0096,-0.0045,0.0014,0.0081,0.0146,0.0199,0.0287,0.035,0.0494,0.0536,0.0626,0.0688,0.0704,0.0723,0.0716,0.0681,0.0636,0.0635,0.0633,0.0606,0.0587,0.0644,0,0,0,0,0,-0.0108,-0.0096,-0.0053,0.0015,0.0069,0.0117,0.0212,0.0267,0.0375,0.0433,0.0483,0.0549,0.0609,0.0659,0.0643,0.0704,0.0669,0.0684,0.0612,0.0652,0.065,0.0618,0,0,0,0,0,0,-0.0098,-0.0072,-0.0067,-0.0009,0.0037,0.0108,0.0168,0.0247,0.0289,0.0396,0.0426,0.0505,0.0556,0.0595,0.0625,0.0636,0.0579,0.0734,0.0733,0.0653,0.0652,0.065,0.0616,0,0,0,0,0]},{"header":{"parameterUnit":"m.s-1","parameterCategory":2,"la1":30.2991,"la2":30.254,"lo1":-89.0895,"lo2":-89.0444,"dy":0.0017,"dx":0.0017,"nx":28,"ny":28,"refTime":"2024-07-02T21:00:00:Z","depth":"4","parameterNumber":3,"parameterNumberName":"V-component_of_CURRENTS"},"data":[0,0,0,0,0,0,0,0,0,0,0,0,0,0,0,0,0,0,0,0,0,0,0,0,0,0,0,0,0,0,0,0,0,0,0,0,0,0,0,0,0,0,0,0,0,0,0,0,0,0,0,0,0,0,0,0,0,0,0.0081,0.0081,0,0.0062,0.0062,0.0061,0.0041,0.0041,0.0041,0.0041,-0.005,-0.0052,-0.0054,0,0,0,0,0,0,0,0,0,0,0,0,0,0.0051,0.0051,0.0081,0.0081,0.0081,0.0062,0.0062,0.0061,0.0041,0.0041,0.0041,0.0041,-0.0049,-0.0052,-0.0054,0,0,0,0,0,0,0,0,0,0,0,0,0,0.005,0.0052,0.0081,0.007,0.0069,0.0062,0.0062,0.0061,0.0041,0.0041,0.0041,0.0041,-0.0048,-0.0051,-0.0055,-0.0071,0,0,-0.0065,-0.0067,0,0,0,0,0,0,0,0,0.005,0.0051,0.0071,0.007,0.0069,0.0055,0.0018,0.0014,0.0041,0.005,0.0041,0.004,-0.002,-0.0026,-0.003,-0.0075,-0.0079,-0.0065,-0.0067,-0.0069,-0.007,0,0,0,0,0,0,0,0.005,0.0051,0.0072,0.0071,0.007,0.0049,0.0048,0.0017,0.0014,0.0049,0.0048,0.0048,-0.0022,-0.0027,-0.0032,-0.0081,-0.0065,-0.0068,-0.007,-0.0072,-0.0191,-0.0192,0,0,0,0,0,0,0.0058,0.0052,0.0073,0.0072,0.006,0.005,0.0049,0.0059,0.0016,0.001,0.0049,0.0048,-0.0021,-0.0028,-0.0036,-0.0075,-0.0069,-0.0072,-0.0074,-0.019,-0.0191,-0.0193,0,0,0,0,0,0,0.0058,0.0061,0.0073,0.0061,0.0062,0.0051,0.0061,0.0058,0.0045,0.0016,0.0009,0.0037,-0.0021,-0.0031,-0.0074,-0.0078,-0.0074,-0.0077,-0.0189,-0.019,-0.0192,-0.0143,0,0,0,0,0,0,0.0057,0.0061,0.0064,0.0063,0.0063,0.0068,0.0061,0.0058,0.0047,0.0045,0.0004,-0.0004,-0.0022,-0.0069,-0.0077,-0.0083,-0.0079,-0.0187,-0.0189,-0.0191,-0.0143,-0.0142,-0.0142,0,0,0,0,0,0.0056,0.0065,0.0064,0.0066,0.007,0.0068,0.0066,0.0056,0.0046,0.0041,0.0009,-0.0003,-0.0089,-0.0072,-0.0082,-0.0088,-0.0186,-0.0189,-0.0191,-0.0143,-0.0143,-0.0142,0,0,0,0,0,0,0.0051,0.0064,0.0063,0.0074,0.007,0.0065,0.0059,0.0051,0.0023,0.0013,-0.0015,-0.0025,-0.0067,-0.0091,-0.0072,-0.0133,-0.0141,-0.0146,-0.0101,-0.0101,-0.0101,-0.0075,-0.0082,0,0,0,0,0,0.0053,0.0062,0.0067,0.0072,0.0071,0.0062,0.0057,0.005,0.003,0.0018,-0.001,-0.0048,-0.0084,-0.0102,-0.014,-0.0169,-0.0193,-0.0183,-0.0183,-0.0182,-0.0171,-0.0217,-0.0218,-0.0201,-0.0201,-0.0201,0,0,0.0052,0.006,0.0064,0.0071,0.0066,0.0079,0.0058,0.0049,0.0057,0.001,-0.0004,-0.0052,-0.0095,-0.0128,-0.0148,-0.0146,-0.0203,-0.0185,-0.0184,-0.0173,-0.0219,-0.0221,-0.0222,-0.0203,-0.0202,-0.0202,0,0,0.0065,0.0061,0.0079,0.008,0.0077,0.0074,0.0072,0.006,0.005,0.0024,-0.0008,-0.0052,-0.0109,-0.0127,-0.0147,-0.017,-0.0204,-0.0197,-0.0165,-0.021,-0.0211,-0.0212,-0.0246,-0.0251,-0.019,-0.019,-0.019,0,0.0061,0.0096,0.0079,0.0099,0.0108,0.0077,0.0102,0.0087,0.0061,0.0043,0.0021,-0.0071,-0.01,-0.0132,-0.0136,-0.0164,-0.0201,-0.0156,-0.0206,-0.0207,-0.0209,-0.0245,-0.025,-0.0188,-0.0188,-0.0188,-0.0188,0,0.0098,0.0122,0.0128,0.0152,0.0151,0.0162,0.015,0.013,0.0101,0.0078,0.0019,-0.0032,-0.0091,-0.0106,-0.0123,-0.0156,-0.0182,-0.0202,-0.0196,-0.0207,-0.0245,-0.0252,-0.0185,-0.0186,-0.0186,-0.0187,0,0,0.0104,0.0151,0.0153,0.0169,0.0185,0.0178,0.0187,0.0177,0.0145,0.0106,0.0066,0.002,-0.004,-0.0066,-0.0107,-0.0128,-0.0166,-0.0166,-0.0169,-0.0181,-0.0269,-0.0231,-0.0235,-0.0203,-0.0204,-0.0205,-0.0289,0,0.0143,0.0197,0.0213,0.0247,0.0271,0.0252,0.0249,0.022,0.0173,0.0114,0.0061,-0.001,-0.0017,-0.0074,-0.009,-0.0165,-0.0182,-0.0141,-0.0273,-0.0276,-0.0226,-0.0241,-0.0208,-0.0294,-0.0295,-0.0297,-0.0297,0,0.0184,0.0213,0.0266,0.0284,0.0287,0.0288,0.025,0.0239,0.0163,0.0116,0.0051,-0.0017,-0.0064,-0.0082,-0.0169,-0.0152,-0.0199,-0.0237,-0.0242,-0.0225,-0.025,-0.0285,-0.031,-0.0309,-0.0308,-0.0307,-0.0306,0,0.0187,0.0247,0.0287,0.0298,0.0309,0.03,0.0285,0.0224,0.0183,0.0093,0.0034,-0.0034,-0.0107,-0.0157,-0.0229,-0.0219,-0.0328,-0.0331,-0.0331,-0.033,-0.0358,-0.0356,-0.038,-0.0379,-0.0379,-0.0379,-0.0379,0,0.0224,0.024,0.0278,0.0285,0.0269,0.0283,0.0228,0.0192,0.0128,0.0069,0.0012,-0.0041,-0.0134,-0.0206,-0.0248,-0.031,-0.0349,-0.0322,-0.0347,-0.0338,-0.0333,-0.0363,-0.036,-0.0382,-0.0382,-0.0381,-0.038,0,0.0183,0.0242,0.025,0.0268,0.0264,0.0224,0.0181,0.0129,0.009,0.0012,-0.0019,-0.0084,-0.0151,-0.0228,-0.0328,-0.0346,-0.0404,-0.0414,-0.0399,-0.0424,-0.0369,-0.0363,-0.0419,-0.0419,-0.0418,-0.0418,-0.0417,0,0.0152,0.017,0.0187,0.0168,0.016,0.0124,0.0087,0.0078,0.0044,0.0003,-0.0031,-0.0103,-0.0144,-0.0248,-0.0314,-0.0398,-0.0395,-0.0444,-0.0384,-0.0353,-0.0373,-0.0367,-0.0362,-0.0416,-0.0416,-0.0416,-0.0416,0,0.0052,0.0065,0.0057,0.0059,0.0032,0.0009,-0.0015,-0.0021,-0.0018,-0.0052,-0.0045,-0.0083,-0.0151,-0.0212,-0.0296,-0.0344,-0.0423,-0.0437,-0.0438,-0.0383,-0.035,-0.0369,-0.0365,-0.0414,-0.0414,-0.0414,-0.0414,0,-0.0072,-0.009,-0.0061,-0.0064,-0.0081,-0.0062,-0.0074,-0.0059,-0.0059,-0.0048,-0.0041,-0.0082,-0.0118,-0.0183,-0.0248,-0.0307,-0.0299,-0.0316,-0.0323,-0.0326,-0.026,-0.0203,-0.024,0,0,0,0,0,-0.0162,-0.014,-0.0175,-0.0135,-0.0144,-0.0122,-0.0115,-0.0105,-0.0061,-0.0055,-0.0033,-0.007,-0.0126,-0.0148,-0.0195,-0.0243,-0.033,-0.0301,-0.0359,-0.0403,-0.0405,-0.0339,0,0,0,0,0,0,-0.0215,-0.0228,-0.0185,-0.0169,-0.0153,-0.0138,-0.0118,-0.0104,-0.0072,-0.0044,-0.0066,-0.0079,-0.0135,-0.0097,-0.0194,-0.0212,-0.0254,-0.0332,-0.0333,-0.0402,-0.0404,-0.0406,-0.0338,0,0,0,0,0]}]]